Location: Ay?beleni
(36.6500°N, 30.3000°E)
Time: 04:29:50
(UTC+00:00)

Nadezhda 1 Rocket - Pass Details

Date: 11 August 2020
Orbit: 940 x 1006 km, 83.0° (Epoch: 22 September)

Event Time Altitude Azimuth Distance (km) Brightness Sun altitude
Rises 01:58:12 0° 140° (SE) 3,721 7.2 -14.4°
Reaches altitude 10° 02:01:36 10° 122° (ESE) 2,776 6.7 -13.8°
Maximum altitude 02:05:37 18° 83° (E) 2,262 6.9 -13.1°
Drops below altitude 10° 02:09:38 10° 43° (NE) 2,779 7.7 -12.4°
Sets 02:13:02 0° 26° (NNE) 3,726 8.0 -11.8°
